Tracking 28790 objects as of 19-Apr-2024
HD Live streaming from Space Station
objects crossing your sky now

TITAN 34D IUS R/B(2)

Track TITAN 34D IUS R/B(2) now!


NORAD ID: 13643
Int'l Code: 1982-106D
Perigee: 35,870.9 km
Apogee: 36,216.9 km
Inclination: 10.9 °
Period: 1,448.9 minutes
Semi major axis: 42414 km
RCS: 3.1622 m2 (large)
Launch date: October 30, 1982
Source: United States (US)
Launch site: AIR FORCE EASTERN TEST RANGE (AFETR)

Note: This is a ROCKET BODY
Your satellite tracking list
Your tracking list is empty




NASA's NSSDC Master Catalog

Two Line Element Set (TLE):
1 13643U 82106D   24109.85952221 -.00000257  00000-0  00000-0 0  9999
2 13643  10.9320 316.2605 0040798  51.0144 131.6231  0.99386035111913
Source of the keplerian elements: AFSPC